Home Music Articles Forums Blog Chat More...      
georgeptingley
(George Peter Tingley)


Member Since: Thursday, November 09 2006 @ 10:23 PM CST
Contact: send a note
Homepage: http://
Location: Point Richmond, CA USA
Song Comments: 38
Song Votes: 0
Forum Posts: 2
Weekly Points: 0.00
Total Points: 848.75
Bio:
Composing and arranging music all my life, I lead a rather quiet existence in the small town of Point Richmond in the San Francisco Bay Area (northern California). I've had an opportunity of studying with some great people - like Nadia Boulanger with whom I got to spend 50 hours in Paris in the 1970's. Composing for figure skater Kristi Yamaguchi was another thrill. Recently, my music has been getting into film. I keep teaching, too, as I love sharing the process.
georgeptingley's Songs (56)
Date Title Rating Hits Genre Last Comment Status
07.16.17 Polly's Song  (---) 266 (6) Pop Classical 07.27.17 Active
06.10.13 The Great Conversation (for clarinet, 'cello, and piano) 0.00 (0) 930 (1) Classical 06.16.13 Active
12.21.12 Graceful Ghost Rag (1970) 0.00 (0) 1186 (4) Ragtime 12.23.12 Active
06.09.12 Copy Cat Rag 060912 0.00 (0) 1212 (4) Ragtime 03.18.14 Active
04.11.12 Divertimento for clarinet, viola, and cello 0.00 (0) 1069 (2) Classical 04.11.12 Active
11.15.11 Sonatina for Clarinet and Piano (1976)  (---) 1094 (2) Classical 11.15.11 Active
09.26.11 Missouri Rag 092611 0.00 (0) 1192 (3) Ragtime 09.29.11 Active
09.08.11 Prelude and Fugue (for string quartet) 10.00 (1) 1771 (4) Classical 09.12.11 Active
08.17.11 Dance of the Spirits 0.00 (0) 1049 (4) Classical 01.23.12 Active
08.05.11 String Quartet - 3rd movement: Elegy 0.00 (0) 1460 (1) Classical 08.09.11 Active
07.31.11 Tempo Fugato (for string quartet) 0.00 (0) 1368 (6) Classical 08.23.11 Active
07.25.11 Dreamshadows 0.00 (0) 1448 (5) Classical 07.28.11 Active
05.29.11 Parisian Pink 052911 8.50 (2) 1553 (6) Cinematic Soundtrack 03.21.12 Active
04.23.11 If you would like to make a call... 0.00 (0) 1757 (4) Electronic 07.25.11 Active
04.07.11 Windmill Rag (2011) 0.00 (0) 2436 (9) Ragtime 07.25.11 Active
03.21.11 Transformation 0.00 (0) 2211 (7) Acoustic 02.27.12 Active
01.15.11 a year for remembering 0.00 (0) 1349 (1) Jazz (instrumental) 01.16.11 Active
01.04.11 Etude for Chamber Orchestra 0.00 (0) 1198 (2) Classical 01.05.11 Active
12.16.10 Chopin's Mazurka in G minor 0.00 (0) 1549 (6) Classical 01.01.11 Active
11.29.10 Elegy 10.00 (1) 1405 (4) Classical 11.29.10 Active
11.02.10 Dinosaur Delirium 0.00 (0) 1385 (3) Techno 11.03.10 Active
10.21.10 That was Then...This is Now 0.00 (0) 1628 (9) Film Scoring 01.19.11 Active
10.14.10 Prelude Cantabile 101410 0.00 (0) 1319 (6) Classical 10.25.10 Active
10.07.10 John Cage's Prepared Piano 0.00 (0) 1332 (3) Classical 10.14.10 Active
10.03.10 Sunday Morning Frolic 10310 0.00 (0) 1724 (3) Jazz (instrumental) 10.14.10 Active
09.27.10 Top Liner Rag (very lo-fi special effect) 0.00 (0) 1374 (2) Ragtime 10.14.10 Active
09.26.10 Lamb's Top Liner Rag (1920's vintage upright sound) 0.00 (0) 1463 (4) Ragtime 03.18.14 Active
09.20.10 Tess of the D'Urbervilles 92010 0.00 (0) 1448 (4) Cinematic Soundtrack 10.07.10 Active
09.17.10 REVERIE for solo piano 0.00 (0) 2175 (3) Classical 09.21.10 Active
09.14.10 Circle Dance 0.00 (0) 1086 (1) Cinematic Soundtrack 09.14.10 Active
09.09.10 TIME Brutal and Tender 0.00 (0) 1458 (5) Classical 09.10.10 Active
09.05.10 Arietta (from Dreamscapes) 0.00 (0) 1923 (5) Cinematic Soundtrack 09.09.10 Active
09.01.10 Sensation Rag (1908) 0.00 (0) 1158 (3) Ragtime 12.16.10 Active
08.23.10 Blues Train 0.00 (0) 1211 (4) Blues (traditional) 01.16.11 Active
08.18.10 Scherzo in A minor (v2) 10.00 (1) 1445 (3) Baroque 01.16.11 Active
08.15.10 Scherzo in A minor 10.00 (1) 1331 (4) Baroque 11.29.10 Active
08.13.10 Dance under the Glass Moon 0.00 (0) 1653 (4) New Age 10.07.10 Active
08.12.10 The Great Conversation 0.00 (0) 1661 (12) New Age 09.09.10 Active
08.09.10 TIME Brutal and Tender (v1) 9.00 (1) 1810 (10) Classical 08.10.10 Active
12.19.09 Satie's Gnossienne #1 9.33 (3) 1650 (2) Classical 12.20.09 Active
11.29.09 Satie Blue 113009 9.25 (2) 1565 (4) Classical 12.19.09 Active
11.16.09 Satie's Gnossienne #2 9.50 (4) 1878 (8) Classical 10.22.10 Active
11.15.09 Burgmuller's L'Arabesque 9.25 (2) 1649 (1) Classical 11.15.09 Active
09.24.09 Valse in C minor 9.13 (2) 1910 (3) Romantic 09.26.09 Active
09.23.09 Tess Speaks 9.25 (2) 1382 (3) Cinematic Soundtrack 10.07.10 Active
09.23.09 Vivace from Sonata in C minor (Pescetti) 9.25 (2) 4563 (5) Baroque 12.16.10 Active
09.20.09 Pocketful of Glass 9.00 (2) 1501 (5) New Age 12.19.09 Active
09.19.09 December Rain 9.25 (2) 1614 (6) Classical 09.26.09 Active
03.07.09 Musette in D major (BWV Anhang 126) 8.75 (2) 2518 (6) Baroque 03.10.09 Active
02.22.09 WINTER 9.00 (2) 2084 (6) Jazz (instrumental) 08.09.10 Active
02.21.09 Handel's "Air in Bb major" 9.25 (3) 2486 (5) Baroque 01.16.11 Active
04.16.07 Improvisation 9.00 (1) 2880 (3) Twentieth Century 02.21.09 Active
04.12.07 Smooth Chill 8.75 (3) 2661 (6) Smooth Jazz 10.08.10 Active
04.09.07 Spring Gigue 7.92 (3) 2666 (6) Baroque 10.25.10 Active
04.09.07 SATIE Gymnopedie #3 8.44 (4) 2154 (3) Twentieth Century 08.05.07 Active
03.18.07 Satie GYMNOPEDIE #1 8.31 (4) 2262 (0) Twentieth Century N/A Active
Favorite Songs (1)
Favorite MacJammers (1)
Fans (18)
Music Background MM in music theory, etc. Studies in Paris with Nadia Boulanger
Music Skills composer, performer
Music Hardware Mini Mac Roland KR-7 Digital Intelligent Piano Oxygen8v2 mini controller
Music Software Digital Performer 4.6 LogicExpress8 GarageBand5 Band in a Box Sibelius 5 (music notation) All Jampacks Garritan Personal Orchestra East/West Silver Symphonic Orchestra plus a whole bunch of stuff recently added in 2010
Keywords